Wind_Speed
28 28 29 29 30 30 31 31 31 30 31 31 32 31 31 31 32 32 33 34 35 35 34 35 35 36 38 40 40 41 43 43 44 44 44 44 44 45 44 45 45 44 44 45
28 28 27 28 29 30 30 31 31 31 31 32 32 31 30 30 31 31 31 32 33 34 34 35 35 36 37 38 40 41 42 43 44 45 45 46 46 46 46 46 46 46 46 46
26 26 26 27 27 28 29 29 29 30 30 31 32 31 30 30 30 30 30 31 32 33 33 34 35 36 37 38 39 41 42 43 44 45 46 46 47 48 48 47 48 48 48 48
25 24 25 26 27 28 28 28 29 29 29 29 30 31 28 28 28 29 29 29 30 31 32 33 34 35 36 37 38 40 41 42 44 45 47 48 47 48 48 49 49 50 50 50
24 24 25 25 26 26 27 28 28 28 29 30 29 30 28 28 28 28 29 29 29 30 31 31 32 34 35 36 37 39 40 41 43 44 46 47 48 49 49 49 50 50 50 51
22 23 23 24 25 26 27 27 28 28 29 30 28 30 29 28 29 28 28 28 29 30 31 31 31 32 34 34 36 37 39 41 43 44 45 46 48 49 50 50 50 50 50 51
21 21 23 23 24 25 26 27 28 29 30 30 29 30 29 27 28 28 27 28 28 29 30 30 30 31 33 34 34 36 38 40 42 44 45 45 47 49 50 51 51 51 51 51
21 21 21 22 23 24 25 26 27 29 29 29 28 28 27 26 27 27 27 27 27 27 28 29 30 31 33 33 35 36 37 39 41 42 44 45 47 49 50 51 51 51 51 51
22 21 21 22 23 23 24 25 26 27 28 27 26 26 26 24 25 26 26 27 27 27 28 29 30 31 32 33 33 35 37 39 40 42 43 44 45 47 49 50 51 52 52 52
23 22 21 22 23 23 24 24 24 25 26 26 24 24 23 24 24 25 26 27 27 27 28 29 30 31 31 32 33 35 38 39 40 41 42 43 44 45 46 48 49 50 51 51
23 23 22 22 22 21 22 23 24 24 25 25 25 22 22 22 24 25 25 26 26 27 28 29 30 30 31 33 34 35 37 38 40 41 42 43 43 44 45 46 47 48 49 50
21 22 22 22 21 21 21 21 22 23 24 24 23 20 21 21 22 23 24 24 25 26 28 29 30 30 32 32 34 35 36 36 37 39 41 42 43 44 44 45 45 45 46 47
20 21 21 21 21 20 21 21 22 23 23 23 22 20 19 20 21 23 23 24 25 27 28 28 28 29 31 32 33 35 36 36 36 37 38 39 40 42 42 43 42 42 43 44
20 20 22 21 21 21 21 21 21 22 23 22 21 20 19 21 22 22 23 25 26 27 28 27 28 29 30 31 33 34 34 34 34 35 36 38 39 39 39 39 39 40 40 42
19 20 21 21 21 21 21 20 21 21 22 21 19 19 20 21 23 23 24 24 25 27 28 28 28 29 30 30 31 32 32 32 33 35 35 36 36 36 35 36 36 37 38 39
19 20 20 20 20 21 21 20 20 20 21 21 20 20 21 22 22 23 23 24 25 26 27 28 29 30 30 30 30 30 31 32 33 33 33 33 33 33 33 33 33 34 35 36
18 19 18 18 19 20 20 19 20 19 20 21 21 20 21 21 21 22 23 24 24 25 27 28 29 29 29 29 28 29 30 30 31 32 31 30 30 30 30 31 31 31 32 32
18 18 18 18 19 19 18 19 19 19 19 20 21 21 21 21 21 22 23 24 24 25 26 27 28 28 28 28 28 28 29 29 29 29 28 28 28 28 29 29 29 29 29 30
17 17 18 18 19 19 19 19 19 20 20 21 21 21 21 21 22 23 23 24 24 24 25 25 26 26 26 27 27 27 27 27 27 26 26 26 26 27 28 28 27 27 27 28
16 16 17 18 19 19 18 19 19 19 20 20 21 21 22 22 23 23 23 23 24 24 24 24 25 25 25 25 26 26 26 26 25 26 25 25 25 26 27 27 26 26 26 26
16 16 17 17 18 17 18 19 19 19 19 20 22 22 22 23 23 23 23 23 23 23 24 24 24 24 24 25 25 25 25 25 25 25 25 25 24 24 25 25 25 25 24 24
16 16 16 17 17 17 18 19 19 20 21 21 22 22 22 22 22 22 22 22 22 23 24 24 24 23 24 24 25 24 23 23 24 24 23 24 23 24 24 25 24 23 23 23
17 17 17 17 18 18 18 19 20 20 21 21 20 21 22 22 22 21 21 21 22 23 23 23 23 23 23 23 23 22 21 21 22 22 22 23 23 23 23 23 22 20 19 19
18 18 19 19 19 19 19 20 21 21 21 21 21 21 21 21 21 21 21 21 22 21 21 22 22 22 23 22 21 20 20 21 21 21 21 22 21 21 21 19 19 18 17 16
17 18 19 19 19 20 20 21 21 21 21 21 21 21 20 20 21 21 21 21 21 21 22 22 22 22 21 20 20 19 20 20 20 21 21 20 19 18 17 17 17 17 15 15
17 18 19 19 19 20 20 21 21 21 21 20 20 20 20 20 20 20 21 21 20 21 21 21 21 20 19 18 18 19 19 20 20 20 19 18 16 15 15 15 15 14 14 14
Wind_Direction
269 269 268 267 266 265 266 266 265 264 263 262 261 262 262 262 262 261 261 260 259 259 258 256 253 252 251 251 251 252 253 254 255 256 257 259 260 260 261 262 263 265 266 267
270 269 268 266 265 265 265 265 265 264 263 263 262 260 260 260 261 261 261 261 259 258 257 256 254 253 253 253 253 253 254 255 256 257 258 260 261 262 262 263 263 265 266 268
269 269 267 266 266 266 265 264 263 264 264 264 263 259 259 260 261 262 262 262 261 260 259 258 256 256 255 254 254 255 255 256 257 258 259 261 261 261 262 263 265 266 266 267
270 267 267 267 267 266 265 263 263 264 265 265 264 264 259 260 261 262 262 262 262 262 262 261 258 257 256 256 256 256 257 258 259 260 261 262 262 262 263 264 266 266 267 267
271 269 268 266 265 266 265 263 262 264 267 267 265 266 263 261 261 263 264 263 262 262 263 262 260 259 257 258 259 258 259 259 260 261 262 263 263 263 264 265 266 267 267 268
272 272 270 267 265 264 264 262 262 263 266 267 266 267 266 265 265 264 264 263 263 263 263 263 263 262 261 261 263 262 261 261 262 263 264 264 264 265 265 265 266 266 267 268
273 274 272 269 267 264 262 261 262 264 266 269 269 268 268 268 267 265 265 266 265 264 264 264 264 265 265 264 265 266 264 264 264 265 265 266 266 266 266 266 265 266 267 268
275 274 272 270 269 267 262 261 263 266 269 271 270 268 269 269 268 268 268 267 265 264 265 266 266 267 268 267 267 267 267 267 267 268 268 268 268 268 267 267 266 266 268 269
276 274 272 272 271 268 264 262 264 267 270 272 271 270 269 270 270 268 266 264 264 266 268 269 270 270 270 270 271 270 270 270 270 270 270 270 271 271 269 268 268 268 268 268
277 275 273 273 272 269 265 264 264 265 268 271 272 273 273 271 270 269 268 267 266 268 271 272 273 272 273 273 274 274 273 273 273 272 272 272 273 273 273 271 270 269 269 269
277 276 273 274 271 267 263 262 261 263 267 272 276 274 275 274 274 274 272 270 270 271 273 273 275 274 274 275 276 277 277 277 276 274 273 274 275 275 275 274 273 271 270 269
277 277 273 271 269 266 265 264 264 266 269 272 277 276 276 276 276 277 277 276 274 275 276 276 277 277 277 278 279 279 281 280 279 277 275 275 276 277 277 275 274 273 271 269
278 278 277 274 271 268 268 268 268 269 270 272 274 278 278 278 279 278 279 280 278 278 278 279 280 279 280 281 281 282 284 283 281 280 278 277 277 278 278 275 275 274 273 271
277 276 276 275 272 269 270 267 267 270 272 274 276 280 280 280 280 280 281 281 282 282 281 281 282 284 285 284 285 285 285 285 284 284 283 280 278 278 278 276 275 275 274 272
279 278 277 274 270 267 267 264 266 269 272 274 277 279 280 280 281 283 284 284 284 284 282 283 284 286 286 287 287 286 287 288 288 288 287 283 280 279 279 277 276 276 275 273
280 281 277 274 271 266 265 263 266 269 271 274 275 280 282 283 285 287 287 287 287 287 286 284 286 288 288 288 287 287 288 290 292 291 290 287 283 281 280 279 278 277 277 275
283 284 280 275 270 267 266 264 265 269 272 272 274 279 284 287 287 289 290 289 290 290 289 289 288 287 289 289 288 288 289 291 292 291 291 289 285 282 280 281 280 278 276 274
282 283 280 276 272 270 270 268 266 268 273 275 275 277 282 285 287 289 293 292 290 291 291 292 291 288 289 290 290 290 290 292 293 292 291 290 285 283 282 282 284 281 278 276
280 280 279 276 274 271 270 271 270 272 273 274 276 277 282 286 288 290 293 294 293 291 292 293 294 292 292 291 291 292 294 295 295 294 291 291 288 285 285 285 286 284 282 280
278 280 279 277 275 273 272 272 274 275 275 274 276 279 283 287 290 292 293 294 294 295 294 293 295 296 294 293 294 295 296 296 295 294 294 292 291 288 286 287 288 286 283 281
277 278 279 278 276 275 274 274 274 276 277 276 279 282 285 289 292 292 293 294 295 295 296 296 295 296 296 297 298 299 298 297 297 295 294 294 293 291 288 287 288 288 284 280
277 280 279 277 277 279 275 275 275 276 278 279 279 283 287 289 293 293 294 295 297 298 298 298 299 298 297 299 300 301 300 299 300 299 297 297 297 294 288 287 287 287 283 280
277 279 280 278 279 279 277 276 276 277 278 278 280 285 288 289 291 292 293 294 298 300 298 299 300 301 300 300 300 301 301 302 303 302 302 301 301 298 293 290 287 286 284 280
276 276 278 279 278 277 277 276 277 277 277 279 282 286 289 289 290 291 292 294 298 299 300 301 302 303 303 301 300 301 302 303 304 304 303 304 303 300 295 291 290 289 289 284
279 277 279 279 278 277 276 276 278 278 278 281 282 285 289 290 290 291 294 295 297 298 301 301 301 302 303 302 301 302 303 303 304 306 307 308 307 304 298 291 289 287 287 287
282 280 281 280 278 278 277 276 278 278 279 282 283 284 286 290 292 292 294 295 296 296 299 301 301 302 303 304 303 305 306 305 304 307 310 312 310 307 303 294 289 289 287 287
Height
5669 5671 5671 5671 5671 5671 5672 5672 5673 5674 5674 5674 5675 5677 5678 5679 5679 5680 5680 5681 5682 5683 5685 5686 5688 5689 5691 5694 5696 5699 5701 5703 5705 5707 5709 5710 5712 5713 5714 5714 5715 5715 5716 5716
5664 5664 5664 5663 5664 5664 5664 5665 5666 5667 5666 5666 5667 5669 5670 5671 5671 5672 5672 5672 5673 5674 5676 5677 5678 5680 5682 5685 5687 5689 5691 5692 5694 5696 5698 5699 5700 5701 5703 5703 5704 5704 5704 5704
5656 5658 5656 5656 5656 5656 5657 5658 5659 5658 5658 5658 5659 5661 5663 5664 5664 5664 5664 5664 5665 5666 5667 5668 5669 5671 5673 5675 5677 5678 5680 5681 5683 5685 5686 5687 5688 5690 5691 5691 5692 5692 5692 5693
5649 5650 5649 5649 5649 5649 5650 5651 5651 5651 5651 5651 5652 5651 5656 5656 5656 5656 5657 5657 5657 5658 5659 5659 5660 5661 5663 5665 5666 5668 5669 5670 5672 5673 5674 5675 5676 5678 5679 5679 5680 5680 5680 5681
5643 5643 5643 5642 5643 5642 5643 5643 5644 5644 5643 5644 5645 5643 5648 5648 5648 5649 5650 5650 5650 5650 5651 5651 5651 5652 5654 5655 5656 5658 5658 5659 5661 5661 5662 5663 5664 5665 5666 5666 5667 5667 5667 5668
5638 5637 5636 5636 5636 5636 5636 5637 5637 5637 5636 5637 5638 5637 5639 5641 5641 5642 5643 5643 5643 5643 5643 5643 5644 5645 5646 5646 5647 5647 5648 5649 5649 5649 5650 5650 5651 5652 5653 5653 5654 5654 5654 5655
5632 5632 5631 5630 5629 5630 5630 5630 5630 5630 5630 5630 5631 5629 5632 5634 5634 5635 5636 5636 5635 5636 5636 5636 5637 5638 5638 5638 5638 5638 5637 5638 5638 5637 5638 5638 5639 5639 5640 5640 5640 5641 5641 5642
5626 5626 5625 5624 5623 5623 5623 5624 5625 5624 5624 5624 5624 5623 5626 5627 5627 5627 5628 5628 5629 5629 5629 5630 5630 5630 5629 5629 5628 5628 5627 5627 5626 5626 5626 5626 5626 5626 5626 5627 5627 5627 5627 5628
5620 5621 5620 5618 5617 5617 5617 5617 5618 5618 5617 5617 5617 5618 5620 5621 5620 5620 5621 5621 5622 5622 5622 5622 5622 5622 5621 5620 5619 5618 5617 5616 5615 5615 5614 5614 5614 5613 5613 5613 5613 5613 5614 5614
5614 5614 5614 5613 5612 5611 5611 5612 5612 5612 5611 5611 5612 5613 5614 5614 5614 5614 5614 5615 5615 5615 5615 5614 5614 5614 5613 5612 5610 5609 5607 5606 5604 5603 5603 5602 5602 5601 5600 5599 5599 5599 5600 5600
5609 5608 5608 5607 5606 5606 5606 5606 5606 5606 5606 5606 5606 5610 5609 5608 5608 5608 5608 5608 5608 5608 5607 5606 5606 5605 5604 5602 5600 5599 5597 5595 5593 5592 5591 5590 5589 5588 5587 5586 5586 5586 5586 5586
5603 5602 5602 5602 5602 5601 5601 5601 5601 5602 5601 5600 5600 5605 5603 5602 5601 5601 5601 5601 5600 5600 5599 5598 5597 5596 5595 5593 5591 5589 5587 5584 5582 5580 5579 5578 5577 5576 5574 5573 5573 5572 5572 5572
5598 5597 5596 5596 5598 5597 5596 5596 5596 5596 5596 5595 5595 5600 5597 5596 5595 5594 5594 5594 5593 5592 5591 5590 5589 5588 5586 5584 5581 5579 5577 5574 5572 5570 5568 5566 5565 5564 5562 5561 5561 5560 5559 5559
5592 5591 5591 5592 5591 5591 5591 5591 5591 5590 5590 5590 5591 5592 5592 5590 5589 5589 5588 5587 5586 5585 5584 5582 5581 5579 5577 5575 5572 5570 5567 5565 5562 5560 5557 5555 5554 5552 5550 5549 5549 5548 5547 5546
5586 5586 5585 5585 5585 5585 5585 5586 5586 5586 5585 5586 5587 5586 5586 5584 5584 5583 5582 5581 5579 5578 5577 5575 5573 5571 5569 5567 5564 5561 5558 5556 5553 5550 5547 5545 5542 5541 5540 5538 5538 5537 5536 5535
5581 5581 5580 5580 5580 5579 5579 5580 5581 5581 5581 5581 5581 5582 5581 5579 5578 5577 5576 5574 5573 5571 5569 5568 5566 5564 5561 5559 5555 5553 5550 5547 5544 5540 5537 5535 5533 5531 5530 5529 5528 5527 5526 5525
5577 5576 5575 5575 5575 5574 5576 5577 5576 5576 5576 5576 5576 5577 5575 5574 5573 5572 5570 5568 5566 5565 5563 5560 5558 5556 5553 5550 5547 5545 5542 5539 5536 5532 5529 5526 5524 5523 5521 5520 5519 5518 5517 5516
5573 5571 5571 5571 5571 5571 5574 5572 5572 5572 5572 5572 5571 5571 5570 5569 5568 5566 5564 5562 5560 5558 5556 5554 5551 5549 5546 5543 5540 5537 5534 5531 5528 5525 5522 5519 5517 5515 5514 5512 5511 5510 5509 5508
5569 5568 5567 5567 5566 5566 5568 5567 5567 5567 5567 5567 5566 5566 5565 5564 5563 5561 5558 5556 5554 5552 5550 5547 5544 5541 5539 5536 5533 5530 5527 5524 5521 5518 5515 5512 5510 5509 5507 5506 5505 5503 5502 5501
5564 5564 5564 5562 5562 5562 5564 5563 5562 5563 5562 5562 5561 5560 5560 5558 5557 5556 5553 5551 5548 5546 5543 5541 5538 5535 5532 5530 5527 5524 5521 5518 5514 5512 5509 5507 5504 5503 5501 5500 5499 5497 5496 5495
5560 5560 5559 5558 5557 5558 5559 5558 5558 5559 5558 5557 5555 5555 5554 5553 5551 5550 5547 5545 5543 5540 5537 5534 5531 5529 5526 5523 5520 5517 5514 5511 5508 5506 5503 5501 5499 5497 5495 5494 5492 5491 5490 5489
5556 5555 5555 5554 5554 5556 5554 5553 5553 5553 5552 5551 5550 5549 5548 5547 5545 5543 5541 5539 5537 5534 5531 5528 5525 5522 5520 5517 5514 5511 5508 5506 5503 5500 5498 5496 5493 5491 5490 5488 5487 5485 5484 5483
5552 5552 5550 5551 5552 5550 5549 5548 5548 5547 5547 5546 5545 5544 5543 5541 5540 5538 5536 5534 5531 5528 5525 5522 5519 5516 5514 5511 5508 5505 5503 5500 5498 5495 5493 5491 5488 5486 5484 5483 5481 5480 5479 5478
5548 5547 5546 5546 5546 5545 5544 5543 5542 5542 5541 5540 5540 5539 5537 5536 5534 5532 5530 5528 5526 5523 5520 5517 5514 5511 5508 5505 5503 5500 5498 5496 5493 5491 5488 5486 5484 5482 5479 5478 5477 5476 5475 5475
5543 5542 5541 5541 5541 5540 5539 5538 5537 5536 5536 5535 5534 5533 5532 5530 5529 5527 5525 5523 5521 5518 5515 5512 5509 5506 5503 5501 5498 5496 5494 5492 5489 5486 5484 5481 5479 5477 5475 5474 5473 5473 5472 5471
5539 5538 5537 5536 5535 5534 5534 5533 5532 5531 5531 5530 5529 5528 5527 5525 5523 5521 5520 5518 5516 5513 5511 5508 5505 5502 5499 5497 5494 5492 5490 5487 5485 5482 5480 5477 5475 5474 5472 5471 5470 5469 5468 5467